Time,TemperatureF,DewpointF,PressureIn,WindDirection,WindDirectionDegrees,WindSpeedMPH,WindSpeedGustMPH,Humidity,HourlyPrecipIn,Conditions,Clouds,dailyrainin,SoftwareType,DateUTC
2013-05-07 00:01:00,58.1,46.0,30.06,SW,225,0.0,0.7,64,0.00,,,0.00,WUHU216HW,2013-05-07 05:01:00,
2013-05-07 00:06:00,57.8,46.1,30.05,West,270,0.2,1.1,65,0.00,,,0.00,WUHU216HW,2013-05-07 05:06:00,
2013-05-07 00:11:00,57.8,46.4,30.05,WNW,293,0.4,1.1,66,0.00,,,0.00,WUHU216HW,2013-05-07 05:11:00,
2013-05-07 00:16:00,57.8,46.4,30.06,West,270,0.4,0.4,66,0.00,,,0.00,WUHU216HW,2013-05-07 05:16:00,
2013-05-07 00:21:00,57.6,46.3,30.06,WSW,248,0.4,0.9,66,0.00,,,0.00,WUHU216HW,2013-05-07 05:21:00,
2013-05-07 00:26:00,57.4,46.1,30.06,WSW,248,0.0,1.1,66,0.00,,,0.00,WUHU216HW,2013-05-07 05:26:00,
2013-05-07 00:31:00,57.2,46.4,30.06,WSW,248,0.4,1.1,67,0.00,,,0.00,WUHU216HW,2013-05-07 05:31:00,
2013-05-07 00:36:00,57.2,46.7,30.06,SW,225,0.4,1.1,68,0.00,,,0.00,WUHU216HW,2013-05-07 05:36:00,
2013-05-07 00:41:00,57.2,46.7,30.06,West,270,0.4,1.1,68,0.00,,,0.00,WUHU216HW,2013-05-07 05:41:00,
2013-05-07 00:46:00,57.4,47.7,30.06,West,270,0.4,1.3,70,0.00,,,0.00,WUHU216HW,2013-05-07 05:46:00,
2013-05-07 00:52:00,57.6,48.2,30.06,NW,315,1.8,1.8,71,0.00,,,0.00,WUHU216HW,2013-05-07 05:52:00,
2013-05-07 00:56:00,57.8,48.4,30.06,WSW,248,1.3,2.5,71,0.00,,,0.00,WUHU216HW,2013-05-07 05:56:00,
2013-05-07 01:02:00,58.1,48.4,30.06,WNW,293,1.6,2.5,70,0.00,,,0.00,WUHU216HW,2013-05-07 06:02:00,
2013-05-07 01:07:00,58.1,48.4,30.06,WSW,248,1.1,2.2,70,0.00,,,0.00,WUHU216HW,2013-05-07 06:07:00,
2013-05-07 01:12:00,58.1,48.4,30.06,SW,225,2.0,3.4,70,0.00,,,0.00,WUHU216HW,2013-05-07 06:12:00,
2013-05-07 01:17:00,58.3,48.6,30.06,West,270,1.8,3.8,70,0.00,,,0.00,WUHU216HW,2013-05-07 06:17:00,
2013-05-07 01:22:00,58.1,48.4,30.06,WNW,293,1.1,3.8,70,0.00,,,0.00,WUHU216HW,2013-05-07 06:22:00,
2013-05-07 01:27:00,58.0,48.2,30.06,West,270,0.7,2.7,70,0.00,,,0.00,WUHU216HW,2013-05-07 06:27:00,
2013-05-07 01:32:00,57.6,47.5,30.06,WNW,293,0.2,1.8,69,0.00,,,0.00,WUHU216HW,2013-05-07 06:32:00,
2013-05-07 01:37:00,57.2,47.9,30.06,West,270,1.1,1.3,71,0.00,,,0.00,WUHU216HW,2013-05-07 06:37:00,
2013-05-07 01:42:00,57.1,47.3,30.06,West,270,0.0,1.8,70,0.00,,,0.00,WUHU216HW,2013-05-07 06:42:00,
2013-05-07 01:47:00,56.9,46.8,30.06,West,270,0.0,1.8,69,0.00,,,0.00,WUHU216HW,2013-05-07 06:47:00,
2013-05-07 01:52:00,56.3,46.3,30.06,West,270,0.0,0.7,69,0.00,,,0.00,WUHU216HW,2013-05-07 06:52:00,
2013-05-07 01:57:00,55.8,46.3,30.06,West,270,0.0,0.4,70,0.00,,,0.00,WUHU216HW,2013-05-07 06:57:00,
2013-05-07 02:02:00,55.3,46.1,30.06,SE,135,0.9,1.1,71,0.00,,,0.00,WUHU216HW,2013-05-07 07:02:00,
2013-05-07 02:07:00,54.9,46.1,30.06,SE,135,0.0,1.1,72,0.00,,,0.00,WUHU216HW,2013-05-07 07:07:00,
2013-05-07 02:12:00,54.5,45.7,30.06,SE,135,0.0,1.1,72,0.00,,,0.00,WUHU216HW,2013-05-07 07:12:00,
2013-05-07 02:17:00,54.2,45.4,30.06,SE,135,0.0,0.0,72,0.00,,,0.00,WUHU216HW,2013-05-07 07:17:00,
2013-05-07 02:22:00,53.8,45.4,30.06,SE,135,0.0,0.0,73,0.00,,,0.00,WUHU216HW,2013-05-07 07:22:00,
2013-05-07 02:27:00,53.5,45.0,30.06,SE,135,0.0,0.0,73,0.00,,,0.00,WUHU216HW,2013-05-07 07:27:00,
2013-05-07 02:32:00,53.5,45.4,30.06,SE,135,0.0,0.0,74,0.00,,,0.00,WUHU216HW,2013-05-07 07:32:00,
2013-05-07 02:37:00,53.5,45.4,30.05,SE,135,0.0,0.0,74,0.00,,,0.00,WUHU216HW,2013-05-07 07:37:00,
2013-05-07 02:42:00,53.1,44.6,30.06,SE,135,0.0,0.0,73,0.00,,,0.00,WUHU216HW,2013-05-07 07:42:00,
2013-05-07 02:47:00,52.7,44.7,30.05,SE,135,0.0,0.0,74,0.00,,,0.00,WUHU216HW,2013-05-07 07:47:00,
2013-05-07 02:52:00,52.4,44.4,30.05,SE,135,0.0,0.0,74,0.00,,,0.00,WUHU216HW,2013-05-07 07:52:00,
2013-05-07 02:57:00,52.0,44.4,30.05,SSE,158,0.4,0.9,75,0.00,,,0.00,WUHU216HW,2013-05-07 07:57:00,
2013-05-07 03:02:00,51.8,44.2,30.05,SSE,158,0.2,0.9,75,0.00,,,0.00,WUHU216HW,2013-05-07 08:02:00,
2013-05-07 03:07:00,51.7,44.4,30.05,South,180,0.2,0.9,76,0.00,,,0.00,WUHU216HW,2013-05-07 08:07:00,
2013-05-07 03:12:00,51.5,44.2,30.05,South,180,0.0,0.9,76,0.00,,,0.00,WUHU216HW,2013-05-07 08:12:00,
2013-05-07 03:17:00,51.1,44.2,30.05,SSW,203,0.0,0.7,77,0.00,,,0.00,WUHU216HW,2013-05-07 08:17:00,
2013-05-07 03:22:00,50.9,44.0,30.05,SSW,203,0.0,0.7,77,0.00,,,0.00,WUHU216HW,2013-05-07 08:22:00,
2013-05-07 03:27:00,50.9,44.3,30.05,SSW,203,0.0,0.4,78,0.00,,,0.00,WUHU216HW,2013-05-07 08:27:00,
2013-05-07 03:32:00,50.9,44.3,30.05,SSW,203,0.0,0.0,78,0.00,,,0.00,WUHU216HW,2013-05-07 08:32:00,
2013-05-07 03:37:00,50.9,45.0,30.05,SSW,203,0.0,0.2,80,0.00,,,0.00,WUHU216HW,2013-05-07 08:37:00,
2013-05-07 03:42:00,50.8,44.5,30.05,SSW,203,0.0,0.2,79,0.00,,,0.00,WUHU216HW,2013-05-07 08:42:00,
2013-05-07 03:47:00,50.6,44.3,30.05,SSW,203,0.0,0.2,79,0.00,,,0.00,WUHU216HW,2013-05-07 08:47:00,
2013-05-07 03:52:00,50.4,44.1,30.05,SSW,203,0.0,0.0,79,0.00,,,0.00,WUHU216HW,2013-05-07 08:52:00,
2013-05-07 03:57:00,50.4,44.5,30.05,SW,225,0.4,0.7,80,0.00,,,0.00,WUHU216HW,2013-05-07 08:57:00,
2013-05-07 04:02:00,50.4,44.5,30.05,SSW,203,0.0,0.7,80,0.00,,,0.00,WUHU216HW,2013-05-07 09:02:00,
2013-05-07 04:07:00,50.4,44.7,30.05,SSE,158,0.0,0.4,81,0.00,,,0.00,WUHU216HW,2013-05-07 09:07:00,
2013-05-07 04:12:00,50.4,44.5,30.05,SSE,158,0.0,0.0,80,0.00,,,0.00,WUHU216HW,2013-05-07 09:12:00,
2013-05-07 04:17:00,50.2,44.3,30.06,SSE,158,0.0,0.0,80,0.00,,,0.00,WUHU216HW,2013-05-07 09:17:00,
2013-05-07 04:22:00,49.9,43.9,30.06,SSE,158,0.0,0.0,80,0.00,,,0.00,WUHU216HW,2013-05-07 09:22:00,
2013-05-07 04:27:00,49.5,43.6,30.06,SSW,203,0.0,0.0,80,0.00,,,0.00,WUHU216HW,2013-05-07 09:27:00,
2013-05-07 04:32:00,49.5,43.6,30.06,SSW,203,0.0,0.2,80,0.00,,,0.00,WUHU216HW,2013-05-07 09:32:00,
2013-05-07 04:37:00,49.5,43.8,30.06,South,180,0.0,0.4,81,0.00,,,0.00,WUHU216HW,2013-05-07 09:37:00,
2013-05-07 04:42:00,49.5,44.2,30.06,South,180,0.0,0.4,82,0.00,,,0.00,WUHU216HW,2013-05-07 09:42:00,
2013-05-07 04:47:00,49.5,44.2,30.06,South,180,0.0,0.4,82,0.00,,,0.00,WUHU216HW,2013-05-07 09:47:00,
2013-05-07 04:52:00,49.5,44.2,30.06,South,180,0.0,0.2,82,0.00,,,0.00,WUHU216HW,2013-05-07 09:52:00,
2013-05-07 04:57:00,49.3,44.0,30.06,South,180,0.0,0.2,82,0.00,,,0.00,WUHU216HW,2013-05-07 09:57:00,
2013-05-07 05:02:00,49.3,44.0,30.06,South,180,0.0,0.2,82,0.00,,,0.00,WUHU216HW,2013-05-07 10:02:00,
2013-05-07 05:07:00,49.0,43.7,30.06,South,180,0.0,0.0,82,0.00,,,0.00,WUHU216HW,2013-05-07 10:07:00,
2013-05-07 05:12:00,48.8,43.5,30.06,South,180,0.0,0.0,82,0.00,,,0.00,WUHU216HW,2013-05-07 10:12:00,
2013-05-07 05:17:00,48.6,43.3,30.06,South,180,0.0,0.0,82,0.00,,,0.00,WUHU216HW,2013-05-07 10:17:00,
2013-05-07 05:22:00,48.4,43.1,30.06,South,180,0.0,0.0,82,0.00,,,0.00,WUHU216HW,2013-05-07 10:22:00,
2013-05-07 05:27:00,48.4,43.5,30.06,South,180,0.0,0.0,83,0.00,,,0.00,WUHU216HW,2013-05-07 10:27:00,
2013-05-07 05:32:00,48.1,42.8,30.06,South,180,0.0,0.0,82,0.00,,,0.00,WUHU216HW,2013-05-07 10:32:00,
2013-05-07 05:37:00,47.9,42.7,30.06,South,180,0.0,0.0,82,0.00,,,0.00,WUHU216HW,2013-05-07 10:37:00,
2013-05-07 05:42:00,47.7,42.5,30.06,South,180,0.0,0.0,82,0.00,,,0.00,WUHU216HW,2013-05-07 10:42:00,
2013-05-07 05:47:00,47.5,42.3,30.06,South,180,0.0,0.0,82,0.00,,,0.00,WUHU216HW,2013-05-07 10:47:00,
2013-05-07 05:52:00,47.3,42.5,30.07,SSW,203,0.4,0.4,83,0.00,,,0.00,WUHU216HW,2013-05-07 10:52:00,
2013-05-07 05:57:00,47.2,42.3,30.07,SSW,203,0.0,0.7,83,0.00,,,0.00,WUHU216HW,2013-05-07 10:57:00,
2013-05-07 06:02:00,47.3,42.8,30.07,SW,225,0.0,0.7,84,0.00,,,0.00,WUHU216HW,2013-05-07 11:02:00,
2013-05-07 06:07:00,47.5,42.9,30.07,WNW,293,0.0,0.4,84,0.00,,,0.00,WUHU216HW,2013-05-07 11:07:00,
2013-05-07 06:12:00,47.3,42.8,30.07,WNW,293,0.0,0.0,84,0.00,,,0.00,WUHU216HW,2013-05-07 11:12:00,
2013-05-07 06:17:00,47.2,42.6,30.07,WNW,293,0.0,0.0,84,0.00,,,0.00,WUHU216HW,2013-05-07 11:17:00,
2013-05-07 06:22:00,47.0,42.4,30.07,WNW,293,0.0,0.0,84,0.00,,,0.00,WUHU216HW,2013-05-07 11:22:00,
2013-05-07 06:27:00,46.8,42.2,30.07,WNW,293,0.0,0.0,84,0.00,,,0.00,WUHU216HW,2013-05-07 11:27:00,
2013-05-07 06:32:00,46.4,42.0,30.07,WNW,293,0.0,0.0,84,0.00,,,0.00,WUHU216HW,2013-05-07 11:32:00,
2013-05-07 06:37:00,46.4,42.0,30.07,WNW,293,0.0,0.0,84,0.00,,,0.00,WUHU216HW,2013-05-07 11:37:00,
2013-05-07 06:42:00,46.3,41.8,30.07,WNW,293,0.0,0.0,84,0.00,,,0.00,WUHU216HW,2013-05-07 11:42:00,
2013-05-07 06:47:00,46.8,42.6,30.07,WNW,293,0.0,0.0,85,0.00,,,0.00,WUHU216HW,2013-05-07 11:47:00,
2013-05-07 06:52:00,46.8,42.6,30.07,WNW,293,0.0,0.0,85,0.00,,,0.00,WUHU216HW,2013-05-07 11:52:00,
2013-05-07 06:57:00,47.0,42.8,30.08,South,180,0.0,0.4,85,0.00,,,0.00,WUHU216HW,2013-05-07 11:57:00,
2013-05-07 07:02:00,47.2,42.9,30.08,South,180,0.0,0.4,85,0.00,,,0.00,WUHU216HW,2013-05-07 12:02:00,
2013-05-07 07:07:00,47.5,43.6,30.08,South,180,0.0,0.2,86,0.00,,,0.00,WUHU216HW,2013-05-07 12:07:00,
2013-05-07 07:12:00,47.9,43.9,30.08,South,180,0.0,0.0,86,0.00,,,0.00,WUHU216HW,2013-05-07 12:12:00,
2013-05-07 07:17:00,48.6,44.9,30.08,SE,135,0.2,0.2,87,0.00,,,0.00,WUHU216HW,2013-05-07 12:17:00,
2013-05-07 07:22:00,49.7,45.6,30.08,ESE,113,0.2,0.7,86,0.00,,,0.00,WUHU216HW,2013-05-07 12:22:00,
2013-05-07 07:27:00,50.4,46.6,30.08,ESE,113,0.0,0.7,87,0.00,,,0.00,WUHU216HW,2013-05-07 12:27:00,
2013-05-07 07:32:00,51.3,47.2,30.08,ESE,113,0.7,0.7,86,0.00,,,0.00,WUHU216HW,2013-05-07 12:32:00,
2013-05-07 07:37:00,52.4,48.2,30.08,ESE,113,0.0,1.1,86,0.00,,,0.00,WUHU216HW,2013-05-07 12:37:00,
2013-05-07 07:42:00,54.0,49.2,30.08,ESE,113,0.0,1.1,84,0.00,,,0.00,WUHU216HW,2013-05-07 12:42:00,
2013-05-07 07:47:00,55.1,50.0,30.08,ESE,113,0.0,0.7,83,0.00,,,0.00,WUHU216HW,2013-05-07 12:47:00,
2013-05-07 07:52:00,55.4,49.7,30.08,WSW,248,0.9,1.8,81,0.00,,,0.00,WUHU216HW,2013-05-07 12:52:00,
2013-05-07 07:57:00,55.6,49.9,30.08,WSW,248,0.4,1.8,81,0.00,,,0.00,WUHU216HW,2013-05-07 12:57:00,
2013-05-07 08:02:00,55.8,50.1,30.08,WSW,248,0.2,1.6,81,0.00,,,0.00,WUHU216HW,2013-05-07 13:02:00,
2013-05-07 08:07:00,56.5,50.8,30.08,West,270,0.0,1.6,81,0.00,,,0.00,WUHU216HW,2013-05-07 13:07:00,
2013-05-07 08:12:00,57.1,50.9,30.08,West,270,0.0,0.7,80,0.00,,,0.00,WUHU216HW,2013-05-07 13:12:00,
2013-05-07 08:17:00,57.6,51.1,30.08,West,270,0.2,0.7,79,0.00,,,0.00,WUHU216HW,2013-05-07 13:17:00,
2013-05-07 08:22:00,59.0,52.2,30.08,West,270,0.0,0.7,78,0.00,,,0.00,WUHU216HW,2013-05-07 13:22:00,
2013-05-07 08:27:00,60.7,53.5,30.08,NW,315,0.0,0.2,77,0.00,,,0.00,WUHU216HW,2013-05-07 13:27:00,
2013-05-07 08:32:00,62.3,53.8,30.08,ENE,68,0.0,0.7,74,0.00,,,0.00,WUHU216HW,2013-05-07 13:32:00,
2013-05-07 08:37:00,63.7,55.3,30.08,SE,135,0.4,0.7,74,0.00,,,0.00,WUHU216HW,2013-05-07 13:37:00,
2013-05-07 08:42:00,64.3,53.1,30.08,SE,135,1.1,1.3,67,0.00,,,0.00,WUHU216HW,2013-05-07 13:42:00,
2013-05-07 08:47:00,64.1,53.3,30.08,East,90,0.2,1.8,68,0.00,,,0.00,WUHU216HW,2013-05-07 13:47:00,
2013-05-07 08:52:00,64.8,54.0,30.08,NE,45,0.0,1.8,68,0.00,,,0.00,WUHU216HW,2013-05-07 13:52:00,
2013-05-07 08:57:00,65.9,53.7,30.09,East,90,0.4,1.1,65,0.00,,,0.00,WUHU216HW,2013-05-07 13:57:00,
2013-05-07 09:02:00,66.8,53.4,30.09,East,90,0.9,1.1,62,0.00,,,0.00,WUHU216HW,2013-05-07 14:02:00,
2013-05-07 09:07:00,67.3,54.3,30.09,SW,225,0.4,1.1,63,0.00,,,0.00,WUHU216HW,2013-05-07 14:07:00,
2013-05-07 09:12:00,68.4,54.9,30.08,East,90,0.4,1.1,62,0.00,,,0.00,WUHU216HW,2013-05-07 14:12:00,
2013-05-07 09:17:00,69.5,54.1,30.08,East,90,0.4,1.8,58,0.00,,,0.00,WUHU216HW,2013-05-07 14:17:00,
2013-05-07 09:22:00,70.2,54.3,30.08,East,90,0.4,1.8,57,0.00,,,0.00,WUHU216HW,2013-05-07 14:22:00,
2013-05-07 09:27:00,70.9,54.4,30.08,ESE,113,1.3,1.8,56,0.00,,,0.00,WUHU216HW,2013-05-07 14:27:00,
2013-05-07 09:32:00,71.1,52.6,30.08,East,90,0.7,1.8,52,0.00,,,0.00,WUHU216HW,2013-05-07 14:32:00,
2013-05-07 09:37:00,71.6,53.0,30.08,ESE,113,1.1,1.8,52,0.00,,,0.00,WUHU216HW,2013-05-07 14:37:00,
2013-05-07 09:42:00,72.4,53.2,30.08,ESE,113,0.4,1.6,51,0.00,,,0.00,WUHU216HW,2013-05-07 14:42:00,
2013-05-07 09:47:00,73.4,53.0,30.08,East,90,1.3,1.8,49,0.00,,,0.00,WUHU216HW,2013-05-07 14:47:00,
2013-05-07 09:52:00,74.3,54.5,30.08,NNW,338,1.1,1.8,50,0.00,,,0.00,WUHU216HW,2013-05-07 14:52:00,
2013-05-07 09:57:00,75.4,53.2,30.08,WSW,248,1.6,2.2,46,0.00,,,0.00,WUHU216HW,2013-05-07 14:57:00,
2013-05-07 10:02:00,74.5,52.3,30.08,WNW,293,0.9,2.2,46,0.00,,,0.00,WUHU216HW,2013-05-07 15:02:00,
2013-05-07 10:07:00,74.7,52.5,30.08,SW,225,0.2,2.7,46,0.00,,,0.00,WUHU216HW,2013-05-07 15:07:00,
2013-05-07 10:12:00,75.2,52.4,30.08,WNW,293,2.0,2.7,45,0.00,,,0.00,WUHU216HW,2013-05-07 15:12:00,
2013-05-07 10:17:00,75.2,51.8,30.08,NW,315,0.7,3.4,44,0.00,,,0.00,WUHU216HW,2013-05-07 15:17:00,
2013-05-07 10:22:00,75.6,53.3,30.08,South,180,0.9,4.7,46,0.00,,,0.00,WUHU216HW,2013-05-07 15:22:00,
2013-05-07 10:28:00,74.7,50.7,30.08,WSW,248,2.7,4.7,43,0.00,,,0.00,WUHU216HW,2013-05-07 15:28:00,
2013-05-07 10:33:00,75.2,53.0,30.08,NNW,338,0.4,3.6,46,0.00,,,0.00,WUHU216HW,2013-05-07 15:33:00,
2013-05-07 10:38:00,75.2,52.4,30.07,East,90,0.9,4.0,45,0.00,,,0.00,WUHU216HW,2013-05-07 15:38:00,
2013-05-07 10:43:00,75.8,51.7,30.07,WNW,293,0.9,4.3,43,0.00,,,0.00,WUHU216HW,2013-05-07 15:43:00,
2013-05-07 10:48:00,75.2,51.8,30.07,SSW,203,2.2,5.8,44,0.00,,,0.00,WUHU216HW,2013-05-07 15:48:00,
2013-05-07 10:53:00,76.0,52.4,30.07,West,270,1.8,5.8,44,0.00,,,0.00,WUHU216HW,2013-05-07 15:53:00,
2013-05-07 10:58:00,76.1,52.6,30.07,WNW,293,1.8,5.1,44,0.00,,,0.00,WUHU216HW,2013-05-07 15:58:00,
2013-05-07 11:03:00,77.4,53.1,30.07,West,270,4.7,5.1,43,0.00,,,0.00,WUHU216HW,2013-05-07 16:03:00,
2013-05-07 11:08:00,76.9,52.0,30.07,WSW,248,1.8,4.7,42,0.00,,,0.00,WUHU216HW,2013-05-07 16:08:00,
2013-05-07 11:13:00,77.6,52.0,30.07,SW,225,5.4,5.4,41,0.00,,,0.00,WUHU216HW,2013-05-07 16:13:00,
2013-05-07 11:18:00,77.6,52.7,30.07,SSE,158,0.9,5.4,42,0.00,,,0.00,WUHU216HW,2013-05-07 16:18:00,
2013-05-07 11:23:00,78.8,52.6,30.06,NW,315,1.8,4.9,40,0.00,,,0.00,WUHU216HW,2013-05-07 16:23:00,
2013-05-07 11:28:00,77.8,52.2,30.07,SE,135,1.8,4.5,41,0.00,,,0.00,WUHU216HW,2013-05-07 16:28:00,
2013-05-07 11:33:00,78.8,51.8,30.06,West,270,3.1,4.5,39,0.00,,,0.00,WUHU216HW,2013-05-07 16:33:00,
2013-05-07 11:38:00,77.8,51.6,30.06,West,270,3.1,4.0,40,0.00,,,0.00,WUHU216HW,2013-05-07 16:38:00,
2013-05-07 11:43:00,76.0,50.0,30.06,WSW,248,3.4,5.4,40,0.00,,,0.00,WUHU216HW,2013-05-07 16:43:00,
2013-05-07 11:48:00,76.7,49.9,30.06,WNW,293,4.7,6.3,39,0.00,,,0.00,WUHU216HW,2013-05-07 16:48:00,
2013-05-07 11:53:00,75.4,50.1,30.06,North,0,1.8,6.5,41,0.00,,,0.00,WUHU216HW,2013-05-07 16:53:00,
2013-05-07 11:58:00,77.0,51.6,30.06,SSE,158,1.1,6.5,41,0.00,,,0.00,WUHU216HW,2013-05-07 16:58:00,
2013-05-07 12:03:00,77.9,49.4,30.06,West,270,5.1,6.9,37,0.00,,,0.00,WUHU216HW,2013-05-07 17:03:00,
2013-05-07 12:08:00,76.7,48.3,30.06,WSW,248,4.3,6.9,37,0.00,,,0.00,WUHU216HW,2013-05-07 17:08:00,
2013-05-07 12:13:00,76.5,49.0,30.06,WNW,293,2.5,6.5,38,0.00,,,0.00,WUHU216HW,2013-05-07 17:13:00,
2013-05-07 12:18:00,76.1,50.1,30.06,SW,225,4.3,4.7,40,0.00,,,0.00,WUHU216HW,2013-05-07 17:18:00,
2013-05-07 12:23:00,77.4,51.3,30.06,SW,225,2.5,4.3,40,0.00,,,0.00,WUHU216HW,2013-05-07 17:23:00,
2013-05-07 12:28:00,79.9,52.7,30.05,WSW,248,2.9,3.8,39,0.00,,,0.00,WUHU216HW,2013-05-07 17:28:00,
2013-05-07 12:33:00,80.3,51.6,30.05,WSW,248,2.7,3.8,37,0.00,,,0.00,WUHU216HW,2013-05-07 17:33:00,
2013-05-07 12:38:00,80.8,49.7,30.05,ENE,68,4.0,4.0,34,0.00,,,0.00,WUHU216HW,2013-05-07 17:38:00,
2013-05-07 12:43:00,81.2,50.0,30.05,SE,135,3.1,4.5,34,0.00,,,0.00,WUHU216HW,2013-05-07 17:43:00,
2013-05-07 12:48:00,80.3,48.4,30.05,WSW,248,2.0,4.7,33,0.00,,,0.00,WUHU216HW,2013-05-07 17:48:00,
2013-05-07 12:53:00,79.9,48.2,30.05,ESE,113,2.7,5.8,33,0.00,,,0.00,WUHU216HW,2013-05-07 17:53:00,
2013-05-07 12:58:00,80.3,49.2,30.04,WSW,248,4.7,5.8,34,0.00,,,0.00,WUHU216HW,2013-05-07 17:58:00,
2013-05-07 13:03:00,79.4,48.4,30.05,SSE,158,3.4,6.5,34,0.00,,,0.00,WUHU216HW,2013-05-07 18:03:00,
2013-05-07 13:08:00,80.1,49.1,30.04,WNW,293,1.1,6.5,34,0.00,,,0.00,WUHU216HW,2013-05-07 18:08:00,
2013-05-07 13:13:00,80.6,48.8,30.04,WSW,248,4.7,4.7,33,0.00,,,0.00,WUHU216HW,2013-05-07 18:13:00,
2013-05-07 13:18:00,80.1,47.5,30.04,West,270,4.7,6.5,32,0.00,,,0.00,WUHU216HW,2013-05-07 18:18:00,
2013-05-07 13:23:00,79.6,47.8,30.04,WSW,248,4.3,6.9,33,0.00,,,0.00,WUHU216HW,2013-05-07 18:23:00,
2013-05-07 13:28:00,80.6,48.8,30.04,WSW,248,0.9,6.9,33,0.00,,,0.00,WUHU216HW,2013-05-07 18:28:00,
2013-05-07 13:33:00,81.4,47.8,30.04,WSW,248,4.3,4.5,31,0.00,,,0.00,WUHU216HW,2013-05-07 18:33:00,
2013-05-07 13:38:00,81.2,50.0,30.04,South,180,0.4,4.5,34,0.00,,,0.00,WUHU216HW,2013-05-07 18:38:00,
2013-05-07 13:43:00,81.5,48.0,30.04,ESE,113,2.7,4.5,31,0.00,,,0.00,WUHU216HW,2013-05-07 18:43:00,
2013-05-07 13:48:00,80.8,45.5,30.04,SW,225,2.0,4.3,29,0.00,,,0.00,WUHU216HW,2013-05-07 18:48:00,
2013-05-07 13:53:00,79.9,45.8,30.03,West,270,3.4,4.3,30,0.00,,,0.00,WUHU216HW,2013-05-07 18:53:00,
2013-05-07 13:58:00,79.7,45.6,30.03,ESE,113,1.1,4.9,30,0.00,,,0.00,WUHU216HW,2013-05-07 18:58:00,
2013-05-07 14:03:00,78.5,46.1,30.03,SW,225,1.3,4.9,32,0.00,,,0.00,WUHU216HW,2013-05-07 19:03:00,
2013-05-07 14:08:00,77.8,45.5,30.03,South,180,1.1,4.0,32,0.00,,,0.00,WUHU216HW,2013-05-07 19:08:00,
2013-05-07 14:13:00,79.0,47.4,30.03,NNE,23,1.3,4.7,33,0.00,,,0.00,WUHU216HW,2013-05-07 19:13:00,
2013-05-07 14:18:00,79.9,46.5,30.03,SW,225,3.1,4.7,31,0.00,,,0.00,WUHU216HW,2013-05-07 19:18:00,
2013-05-07 14:23:00,79.6,46.3,30.03,ENE,68,5.8,5.8,31,0.00,,,0.00,WUHU216HW,2013-05-07 19:23:00,
2013-05-07 14:28:00,79.7,48.0,30.03,West,270,2.5,5.8,33,0.00,,,0.00,WUHU216HW,2013-05-07 19:28:00,
2013-05-07 14:33:00,81.0,46.7,30.03,SW,225,6.7,6.9,30,0.00,,,0.00,WUHU216HW,2013-05-07 19:33:00,
2013-05-07 14:38:00,81.4,48.6,30.03,West,270,1.8,6.9,32,0.00,,,0.00,WUHU216HW,2013-05-07 19:38:00,
2013-05-07 14:43:00,81.4,48.6,30.02,SSE,158,1.6,6.9,32,0.00,,,0.00,WUHU216HW,2013-05-07 19:43:00,
2013-05-07 14:48:00,81.7,48.1,30.02,WSW,248,3.6,6.9,31,0.00,,,0.00,WUHU216HW,2013-05-07 19:48:00,
2013-05-07 14:53:00,82.3,48.5,30.02,SE,135,1.1,5.8,31,0.00,,,0.00,WUHU216HW,2013-05-07 19:53:00,
2013-05-07 14:58:00,83.0,47.4,30.02,WSW,248,2.9,5.4,29,0.00,,,0.00,WUHU216HW,2013-05-07 19:58:00,
2013-05-07 15:03:00,83.5,48.9,30.02,East,90,2.7,5.4,30,0.00,,,0.00,WUHU216HW,2013-05-07 20:03:00,
2013-05-07 15:08:00,81.7,47.4,30.02,South,180,3.1,6.7,30,0.00,,,0.00,WUHU216HW,2013-05-07 20:08:00,
2013-05-07 15:13:00,80.5,46.3,30.02,SW,225,1.6,6.7,30,0.00,,,0.00,WUHU216HW,2013-05-07 20:13:00,
2013-05-07 15:18:00,79.4,46.9,30.02,West,270,3.4,4.7,32,0.00,,,0.00,WUHU216HW,2013-05-07 20:18:00,
2013-05-07 15:23:00,79.6,47.8,30.01,North,0,0.4,5.4,33,0.00,,,0.00,WUHU216HW,2013-05-07 20:23:00,
2013-05-07 15:28:00,81.0,48.2,30.01,NE,45,2.5,5.4,32,0.00,,,0.00,WUHU216HW,2013-05-07 20:28:00,
2013-05-07 15:33:00,81.9,48.3,30.01,SW,225,3.8,5.1,31,0.00,,,0.00,WUHU216HW,2013-05-07 20:33:00,
2013-05-07 15:38:00,80.1,46.7,30.01,WSW,248,3.8,5.1,31,0.00,,,0.00,WUHU216HW,2013-05-07 20:38:00,
2013-05-07 15:43:00,79.0,46.5,30.01,SW,225,1.3,5.1,32,0.00,,,0.00,WUHU216HW,2013-05-07 20:43:00,
2013-05-07 15:48:00,77.8,47.0,30.01,WSW,248,0.9,4.3,34,0.00,,,0.00,WUHU216HW,2013-05-07 20:48:00,
2013-05-07 15:53:00,77.2,46.5,30.00,East,90,1.3,3.8,34,0.00,,,0.00,WUHU216HW,2013-05-07 20:53:00,
2013-05-07 15:58:00,77.4,47.4,30.00,NNE,23,0.2,2.5,35,0.00,,,0.00,WUHU216HW,2013-05-07 20:58:00,
2013-05-07 16:03:00,79.0,47.4,30.00,WSW,248,1.3,3.4,33,0.00,,,0.00,WUHU216HW,2013-05-07 21:03:00,
2013-05-07 16:08:00,77.9,46.4,30.00,WSW,248,1.6,4.0,33,0.00,,,0.00,WUHU216HW,2013-05-07 21:08:00,
2013-05-07 16:13:00,77.4,46.7,30.00,East,90,2.5,4.0,34,0.00,,,0.00,WUHU216HW,2013-05-07 21:13:00,
2013-05-07 16:18:00,78.1,46.5,30.00,WSW,248,2.2,4.7,33,0.00,,,0.00,WUHU216HW,2013-05-07 21:18:00,
2013-05-07 16:23:00,79.6,47.0,30.00,South,180,2.5,4.7,32,0.00,,,0.00,WUHU216HW,2013-05-07 21:23:00,
2013-05-07 16:28:00,80.8,48.2,30.00,SE,135,1.8,4.0,32,0.00,,,0.00,WUHU216HW,2013-05-07 21:28:00,
2013-05-07 16:33:00,81.9,49.1,29.99,ESE,113,1.1,4.0,32,0.00,,,0.00,WUHU216HW,2013-05-07 21:33:00,
2013-05-07 16:38:00,83.7,49.1,30.00,South,180,2.5,4.3,30,0.00,,,0.00,WUHU216HW,2013-05-07 21:38:00,
2013-05-07 16:43:00,83.2,48.5,29.99,WSW,248,2.7,4.7,30,0.00,,,0.00,WUHU216HW,2013-05-07 21:43:00,
2013-05-07 16:48:00,82.6,48.9,29.99,ENE,68,3.4,4.7,31,0.00,,,0.00,WUHU216HW,2013-05-07 21:48:00,
2013-05-07 16:53:00,81.0,47.5,29.99,West,270,3.1,4.0,31,0.00,,,0.00,WUHU216HW,2013-05-07 21:53:00,
2013-05-07 16:58:00,80.8,48.2,29.99,SSE,158,3.8,5.1,32,0.00,,,0.00,WUHU216HW,2013-05-07 21:58:00,
2013-05-07 17:03:00,81.2,47.6,29.99,SE,135,3.6,5.4,31,0.00,,,0.00,WUHU216HW,2013-05-07 22:03:00,
2013-05-07 17:08:00,81.7,48.1,29.99,East,90,4.5,5.4,31,0.00,,,0.00,WUHU216HW,2013-05-07 22:08:00,
2013-05-07 17:13:00,80.6,47.3,29.99,SE,135,2.5,4.5,31,0.00,,,0.00,WUHU216HW,2013-05-07 22:13:00,
2013-05-07 17:18:00,79.6,47.0,29.99,SE,135,1.1,4.7,32,0.00,,,0.00,WUHU216HW,2013-05-07 22:18:00,
2013-05-07 17:23:00,80.6,48.0,29.99,South,180,1.1,4.7,32,0.00,,,0.00,WUHU216HW,2013-05-07 22:23:00,
2013-05-07 17:28:00,81.9,48.3,29.99,WSW,248,2.0,4.0,31,0.00,,,0.00,WUHU216HW,2013-05-07 22:28:00,
2013-05-07 17:33:00,82.3,48.5,29.99,South,180,1.1,4.7,31,0.00,,,0.00,WUHU216HW,2013-05-07 22:33:00,
2013-05-07 17:38:00,83.2,47.5,29.99,WSW,248,3.1,4.7,29,0.00,,,0.00,WUHU216HW,2013-05-07 22:38:00,
2013-05-07 17:43:00,82.3,47.7,29.99,ESE,113,2.9,4.5,30,0.00,,,0.00,WUHU216HW,2013-05-07 22:43:00,
2013-05-07 17:48:00,82.1,47.6,29.99,WSW,248,2.5,4.5,30,0.00,,,0.00,WUHU216HW,2013-05-07 22:48:00,
2013-05-07 17:53:00,81.0,47.5,29.99,SE,135,1.3,4.5,31,0.00,,,0.00,WUHU216HW,2013-05-07 22:53:00,
2013-05-07 17:58:00,79.7,47.2,29.99,SE,135,1.8,4.0,32,0.00,,,0.00,WUHU216HW,2013-05-07 22:58:00,
2013-05-07 18:03:00,78.8,46.4,29.99,WSW,248,2.2,4.0,32,0.00,,,0.00,WUHU216HW,2013-05-07 23:03:00,
2013-05-07 18:08:00,78.1,46.5,29.99,East,90,0.2,3.4,33,0.00,,,0.00,WUHU216HW,2013-05-07 23:08:00,
2013-05-07 18:13:00,77.8,47.0,29.99,ENE,68,2.5,3.6,34,0.00,,,0.00,WUHU216HW,2013-05-07 23:13:00,
2013-05-07 18:18:00,78.3,47.4,29.99,ESE,113,2.7,4.0,34,0.00,,,0.00,WUHU216HW,2013-05-07 23:18:00,
2013-05-07 18:23:00,79.4,48.4,29.98,ESE,113,1.6,4.0,34,0.00,,,0.00,WUHU216HW,2013-05-07 23:23:00,
2013-05-07 18:28:00,79.2,47.4,29.98,SE,135,0.9,3.1,33,0.00,,,0.00,WUHU216HW,2013-05-07 23:28:00,
2013-05-07 18:33:00,78.3,47.4,29.98,SE,135,0.7,3.1,34,0.00,,,0.00,WUHU216HW,2013-05-07 23:33:00,
2013-05-07 18:38:00,78.3,47.4,29.98,WSW,248,1.8,4.0,34,0.00,,,0.00,WUHU216HW,2013-05-07 23:38:00,
2013-05-07 18:43:00,79.7,48.0,29.98,SW,225,1.8,4.0,33,0.00,,,0.00,WUHU216HW,2013-05-07 23:43:00,
2013-05-07 18:48:00,78.8,47.2,29.98,WSW,248,2.2,4.5,33,0.00,,,0.00,WUHU216HW,2013-05-07 23:48:00,
2013-05-07 18:53:00,77.6,46.9,29.98,SW,225,2.9,4.5,34,0.00,,,0.00,WUHU216HW,2013-05-07 23:53:00,
2013-05-07 18:58:00,76.9,47.0,29.98,SW,225,4.0,4.5,35,0.00,,,0.00,WUHU216HW,2013-05-07 23:58:00,
2013-05-07 19:03:00,76.3,47.3,29.98,SW,225,1.3,4.0,36,0.00,,,0.00,WUHU216HW,2013-05-08 00:03:00,
2013-05-07 19:08:00,76.1,47.1,29.98,WSW,248,1.8,3.4,36,0.00,,,0.00,WUHU216HW,2013-05-08 00:08:00,
2013-05-07 19:13:00,76.0,47.7,29.98,WSW,248,0.4,3.4,37,0.00,,,0.00,WUHU216HW,2013-05-08 00:13:00,
2013-05-07 19:18:00,75.6,47.3,29.98,WSW,248,0.4,3.1,37,0.00,,,0.00,WUHU216HW,2013-05-08 00:18:00,
2013-05-07 19:23:00,75.6,47.3,29.98,WSW,248,1.1,2.5,37,0.00,,,0.00,WUHU216HW,2013-05-08 00:23:00,
2013-05-07 19:28:00,75.2,47.8,29.98,WSW,248,0.4,2.5,38,0.00,,,0.00,WUHU216HW,2013-05-08 00:28:00,
2013-05-07 19:33:00,74.9,47.5,29.98,WSW,248,0.0,1.8,38,0.00,,,0.00,WUHU216HW,2013-05-08 00:33:00,
2013-05-07 19:38:00,74.5,47.2,29.98,SE,135,0.7,1.8,38,0.00,,,0.00,WUHU216HW,2013-05-08 00:38:00,
2013-05-07 19:43:00,74.2,47.6,29.98,East,90,1.1,1.8,39,0.00,,,0.00,WUHU216HW,2013-05-08 00:43:00,
2013-05-07 19:48:00,73.8,47.3,29.98,NNW,338,0.2,1.8,39,0.00,,,0.00,WUHU216HW,2013-05-08 00:48:00,
2013-05-07 19:53:00,73.3,46.8,29.98,ESE,113,0.0,1.8,39,0.00,,,0.00,WUHU216HW,2013-05-08 00:53:00,
2013-05-07 19:58:00,72.7,47.1,29.98,South,180,0.4,0.9,40,0.00,,,0.00,WUHU216HW,2013-05-08 00:58:00,
2013-05-07 20:03:00,72.2,47.2,29.98,SSE,158,0.2,2.0,41,0.00,,,0.00,WUHU216HW,2013-05-08 01:03:00,
2013-05-07 20:08:00,71.6,46.7,29.98,ESE,113,0.2,2.0,41,0.00,,,0.00,WUHU216HW,2013-05-08 01:08:00,
2013-05-07 20:13:00,71.1,46.8,29.98,ESE,113,0.0,0.7,42,0.00,,,0.00,WUHU216HW,2013-05-08 01:13:00,
2013-05-07 20:18:00,70.6,46.3,29.98,ESE,113,0.0,0.4,42,0.00,,,0.00,WUHU216HW,2013-05-08 01:18:00,
2013-05-07 20:23:00,70.2,46.5,29.98,ESE,113,0.0,0.4,43,0.00,,,0.00,WUHU216HW,2013-05-08 01:23:00,
2013-05-07 20:28:00,69.8,46.8,29.98,ESE,113,0.0,0.4,44,0.00,,,0.00,WUHU216HW,2013-05-08 01:28:00,
2013-05-07 20:33:00,69.3,46.4,29.98,ESE,113,0.0,0.2,44,0.00,,,0.00,WUHU216HW,2013-05-08 01:33:00,
2013-05-07 20:38:00,68.6,45.7,29.98,ESE,113,0.0,0.0,44,0.00,,,0.00,WUHU216HW,2013-05-08 01:38:00,
2013-05-07 20:43:00,67.9,45.1,29.98,ESE,113,0.0,0.0,44,0.00,,,0.00,WUHU216HW,2013-05-08 01:43:00,
2013-05-07 20:48:00,67.5,45.4,29.98,ESE,113,0.0,0.0,45,0.00,,,0.00,WUHU216HW,2013-05-08 01:48:00,
2013-05-07 20:53:00,67.1,45.6,29.98,ESE,113,0.0,0.2,46,0.00,,,0.00,WUHU216HW,2013-05-08 01:53:00,
2013-05-07 20:58:00,67.0,45.5,29.98,ESE,113,0.0,0.4,46,0.00,,,0.00,WUHU216HW,2013-05-08 01:58:00,
2013-05-07 21:03:00,67.0,46.0,29.98,ESE,113,0.0,1.1,47,0.00,,,0.00,WUHU216HW,2013-05-08 02:03:00,
2013-05-07 21:08:00,66.8,45.9,29.98,ESE,113,0.0,1.1,47,0.00,,,0.00,WUHU216HW,2013-05-08 02:08:00,
2013-05-07 21:13:00,66.6,45.7,29.98,ENE,68,0.2,0.9,47,0.00,,,0.00,WUHU216HW,2013-05-08 02:13:00,
2013-05-07 21:18:00,66.6,45.7,29.98,ESE,113,0.4,0.9,47,0.00,,,0.00,WUHU216HW,2013-05-08 02:18:00,
2013-05-07 21:23:00,66.4,46.2,29.98,ESE,113,0.0,0.9,48,0.00,,,0.00,WUHU216HW,2013-05-08 02:23:00,
2013-05-07 21:29:00,66.2,46.0,29.98,ESE,113,0.0,0.4,48,0.00,,,0.00,WUHU216HW,2013-05-08 02:29:00,
2013-05-07 21:34:00,66.1,45.8,29.98,ESE,113,0.2,0.4,48,0.00,,,0.00,WUHU216HW,2013-05-08 02:34:00,
2013-05-07 21:39:00,65.9,46.2,29.98,ESE,113,0.0,0.9,49,0.00,,,0.00,WUHU216HW,2013-05-08 02:39:00,
2013-05-07 21:44:00,65.5,45.8,29.98,ESE,113,0.4,1.1,49,0.00,,,0.00,WUHU216HW,2013-05-08 02:44:00,
2013-05-07 21:49:00,65.5,45.8,29.99,ESE,113,0.2,1.1,49,0.00,,,0.00,WUHU216HW,2013-05-08 02:49:00,
2013-05-07 21:54:00,65.3,46.3,29.99,ESE,113,0.0,0.4,50,0.00,,,0.00,WUHU216HW,2013-05-08 02:54:00,
2013-05-07 21:59:00,65.0,45.9,29.99,ESE,113,0.0,0.4,50,0.00,,,0.00,WUHU216HW,2013-05-08 02:59:00,
2013-05-07 22:04:00,64.8,45.7,29.99,ESE,113,0.0,0.4,50,0.00,,,0.00,WUHU216HW,2013-05-08 03:04:00,
2013-05-07 22:09:00,64.3,45.7,29.99,ESE,113,0.2,0.2,51,0.00,,,0.00,WUHU216HW,2013-05-08 03:09:00,
2013-05-07 22:14:00,63.9,45.4,29.99,ENE,68,0.4,0.4,51,0.00,,,0.00,WUHU216HW,2013-05-08 03:14:00,
2013-05-07 22:19:00,63.7,45.7,29.99,ESE,113,0.7,0.7,52,0.00,,,0.00,WUHU216HW,2013-05-08 03:19:00,
2013-05-07 22:24:00,63.5,46.0,29.99,ESE,113,0.7,1.1,53,0.00,,,0.00,WUHU216HW,2013-05-08 03:24:00,
2013-05-07 22:29:00,63.7,45.7,29.99,ESE,113,0.2,1.1,52,0.00,,,0.00,WUHU216HW,2013-05-08 03:29:00,
2013-05-07 22:34:00,63.7,45.7,29.99,ESE,113,0.4,0.9,52,0.00,,,0.00,WUHU216HW,2013-05-08 03:34:00,
2013-05-07 22:39:00,63.7,46.2,29.99,East,90,0.0,1.1,53,0.00,,,0.00,WUHU216HW,2013-05-08 03:39:00,
2013-05-07 22:44:00,63.5,46.0,29.99,ESE,113,0.7,1.1,53,0.00,,,0.00,WUHU216HW,2013-05-08 03:44:00,
2013-05-07 22:49:00,63.0,45.6,29.99,ESE,113,0.0,0.7,53,0.00,,,0.00,WUHU216HW,2013-05-08 03:49:00,
2013-05-07 22:54:00,62.5,45.6,29.99,ESE,113,0.0,0.7,54,0.00,,,0.00,WUHU216HW,2013-05-08 03:54:00,
2013-05-07 22:59:00,61.7,44.9,29.98,ESE,113,0.0,0.0,54,0.00,,,0.00,WUHU216HW,2013-05-08 03:59:00,
2013-05-07 23:01:00,61.4,45.0,29.98,ESE,113,0.0,0.0,55,0.00,,,0.00,WUHU216HW,2013-05-08 04:01:00,
2013-05-07 23:06:00,60.7,44.8,29.98,ESE,113,0.0,0.0,56,0.00,,,0.00,WUHU216HW,2013-05-08 04:06:00,
2013-05-07 23:11:00,60.1,44.8,29.98,ESE,113,0.0,0.0,57,0.00,,,0.00,WUHU216HW,2013-05-08 04:11:00,
2013-05-07 23:16:00,59.8,44.5,29.98,ESE,113,0.0,0.2,57,0.00,,,0.00,WUHU216HW,2013-05-08 04:16:00,
2013-05-07 23:21:00,59.2,44.5,29.98,ESE,113,0.0,0.2,58,0.00,,,0.00,WUHU216HW,2013-05-08 04:21:00,
2013-05-07 23:26:00,58.9,44.1,29.98,ESE,113,0.0,0.0,58,0.00,,,0.00,WUHU216HW,2013-05-08 04:26:00,
2013-05-07 23:31:00,58.7,44.4,29.98,ESE,113,0.0,0.0,59,0.00,,,0.00,WUHU216HW,2013-05-08 04:31:00,
2013-05-07 23:36:00,58.3,44.6,29.98,ESE,113,0.0,0.0,60,0.00,,,0.00,WUHU216HW,2013-05-08 04:36:00,
2013-05-07 23:41:00,58.1,44.4,29.98,ESE,113,0.0,0.0,60,0.00,,,0.00,WUHU216HW,2013-05-08 04:41:00,
2013-05-07 23:46:00,58.0,44.2,29.99,ESE,113,0.0,0.0,60,0.00,,,0.00,WUHU216HW,2013-05-08 04:46:00,
2013-05-07 23:51:00,57.8,44.5,29.98,ESE,113,0.0,0.0,61,0.00,,,0.00,WUHU216HW,2013-05-08 04:51:00,
2013-05-07 23:56:00,57.8,44.5,29.98,ESE,113,0.0,0.0,61,0.00,,,0.00,WUHU216HW,2013-05-08 04:56:00,